Deer Park, WA

10:56 PM PST on February 22, 2018 (GMT -0800)
Deer Park

Weather History for KDEW - September, 2013

Change the Weather History Date:

Thursday, September 26, 2013

  Actual Average Record
Temperature  
Mean Temperature 49 °F 52 °F  
Max Temperature 63 °F 69 °F 82 °F (2003)
Min Temperature 35 °F 35 °F 28 °F (1999)
Degree Days  
Heating Degree Days 16 13  
Month to date heating degree days 154 220  
Since 1 July heating degree days 197 364  
Cooling Degree Days 0 0  
Month to date cooling degree days 69 10  
Year to date cooling degree days 310 185  
Moisture  
Dew Point 37 °F    
Average Humidity 64    
Maximum Humidity 96    
Minimum Humidity 32    
Precipitation  
Precipitation 0.00 in 0.04 in 0.02 in (2001)
Month to date precipitation 1.38 0.85  
Year to date precipitation 13.35 14.29  
Sea Level Pressure  
Sea Level Pressure 30.00 in    
Wind  
Wind Speed 3 mph (NNE)    
Max Wind Speed 14 mph    
Max Gust Speed 17 mph    
Visibility 10 miles    
Events      
T = Trace of Precipitation, MM = Missing Value Source: NWS Daily Summary

Daily Weather History Graph

Daily Weather History Graph

Search for Another Location

Airport or City:

Trip Planner

Search our weather history database for the weather conditions in past years. The results will help you decide how hot, cold, wet, or windy it might be!

Date:

Astronomy

Sep. 26, 2013 Rise Set
Actual Time 6:42 AM PDT 6:38 PM PDT
Civil Twilight 6:11 AM PDT 7:09 PM PDT
Nautical Twilight 5:35 AM PDT 7:45 PM PDT
Astronomical Twilight 4:58 AM PDT 8:22 PM PDT
Moon 11:18 PM PDT (9/26) 2:00 PM PDT (9/26)
Length of Visible Light 12h 57m
Length of Day
11h 56m
Waning Gibbous, 53% of the Moon is Illuminated
Sep 26
Waning Gibbous
Sep 26
Last Quarter
Oct 4
New
Oct 11
First Quarter
Oct 18
Full

Hourly Weather History & Observations

Time (PDT) Temp. Windchill Dew Point Humidity Pressure Visibility Wind Dir Wind Speed Gust Speed Precip Events Conditions
12:53 AM 42.1 °F 40.2 °F 41.0 °F 96% 29.92 in 10.0 mi ENE 3.5 mph - N/A   Overcast
1:53 AM 42.1 °F - 41.0 °F 96% 29.92 in 10.0 mi Calm Calm - N/A   Overcast
2:53 AM 42.1 °F 38.4 °F 39.9 °F 92% 29.93 in 10.0 mi ENE 5.8 mph - N/A   Overcast
3:53 AM 42.1 °F 37.7 °F 39.9 °F 92% 29.95 in 10.0 mi NE 6.9 mph - N/A   Overcast
4:53 AM 39.0 °F 36.8 °F 37.9 °F 96% 29.96 in 10.0 mi WSW 3.5 mph - N/A   Scattered Clouds
5:53 AM 37.9 °F - 36.0 °F 93% 29.97 in 7.0 mi Calm Calm - N/A   Clear
6:53 AM 39.0 °F - 36.0 °F 89% 29.99 in 10.0 mi Calm Calm - N/A   Clear
7:53 AM 39.0 °F 36.8 °F 37.0 °F 93% 30.01 in 10.0 mi WNW 3.5 mph - N/A   Overcast
8:53 AM 42.1 °F - 39.9 °F 92% 30.03 in 10.0 mi Calm Calm - N/A   Overcast
9:53 AM 50.0 °F - 43.0 °F 77% 30.03 in 10.0 mi NNW 6.9 mph - N/A   Overcast
10:53 AM 52.0 °F - 42.1 °F 69% 30.03 in 10.0 mi NW 4.6 mph - N/A   Overcast
11:53 AM 59.0 °F - 33.1 °F 38% 30.02 in 10.0 mi NNE 9.2 mph - N/A   Partly Cloudy
12:53 PM 61.0 °F - 30.9 °F 32% 30.01 in 10.0 mi NNE 10.4 mph - N/A   Clear
1:53 PM 60.1 °F - 30.0 °F 32% 29.99 in 10.0 mi Calm Calm - N/A   Mostly Cloudy
2:53 PM 61.0 °F - 30.9 °F 32% 30.00 in 10.0 mi NE 9.2 mph - N/A   Mostly Cloudy
3:53 PM 60.1 °F - 30.9 °F 33% 29.99 in 10.0 mi NE 4.6 mph - N/A   Overcast
4:53 PM 57.9 °F - 32.0 °F 37% 30.01 in 10.0 mi East 4.6 mph - N/A   Overcast
5:53 PM 59.0 °F - 30.0 °F 33% 30.02 in 10.0 mi Calm Calm - N/A   Overcast
6:53 PM 53.1 °F - 41.0 °F 64% 30.03 in 10.0 mi Calm Calm - N/A   Overcast
7:53 PM 54.0 °F - 35.1 °F 49% 30.04 in 10.0 mi Calm Calm - N/A   Overcast
8:53 PM 46.9 °F - 37.9 °F 71% 30.06 in 10.0 mi Calm Calm - N/A   Overcast
9:53 PM 45.0 °F - 39.0 °F 80% 30.05 in 10.0 mi Calm Calm - N/A   Overcast
10:53 PM 46.0 °F - 39.0 °F 76% 30.04 in 10.0 mi Calm Calm - N/A   Overcast
11:53 PM 45.0 °F - 39.0 °F 80% 30.03 in 10.0 mi Calm Calm - N/A   Overcast